Index of /20260422/WXO-DD/model_gdps/15km/00/058
Name Last modified Size Description
Parent Directory -
20260422T00Z_MSC_GDPS_AirTemp_AGL-120m_LatLon0.15_PT058H.grib2 2026-04-22 04:09 903K
20260422T00Z_MSC_GDPS_AirTemp_AGL-2m_LatLon0.15_PT058H.grib2 2026-04-22 04:09 1.0M
20260422T00Z_MSC_GDPS_AirTemp_AGL-40m_LatLon0.15_PT058H.grib2 2026-04-22 04:09 805K
20260422T00Z_MSC_GDPS_AirTemp_AGL-80m_LatLon0.15_PT058H.grib2 2026-04-22 04:09 911K
20260422T00Z_MSC_GDPS_Albedo_Sfc_LatLon0.15_PT058H.grib2 2026-04-22 04:09 244K
20260422T00Z_MSC_GDPS_ConvectivePrecip-Accum_Sfc_LatLon0.15_PT058H.grib2 2026-04-22 04:09 3.0M
20260422T00Z_MSC_GDPS_DewPointDepression_AGL-2m_LatLon0.15_PT058H.grib2 2026-04-22 04:09 750K
20260422T00Z_MSC_GDPS_DewPoint_AGL-2m_LatLon0.15_PT058H.grib2 2026-04-22 04:09 608K
20260422T00Z_MSC_GDPS_DownwardLongwaveRadiationFlux-Accum_Sfc_LatLon0.15_PT058H.grib2 2026-04-22 04:09 858K
20260422T00Z_MSC_GDPS_DownwardShortwaveRadiationFlux-Accum_Sfc_LatLon0.15_PT058H.grib2 2026-04-22 04:09 1.1M
20260422T00Z_MSC_GDPS_FreezingRain-Accum1h_Sfc_LatLon0.15_PT058H.grib2 2026-04-22 04:09 38K
20260422T00Z_MSC_GDPS_FreezingRain-Accum_Sfc_LatLon0.15_PT058H.grib2 2026-04-22 04:09 228K
20260422T00Z_MSC_GDPS_IcePellets-Accum1h_Sfc_LatLon0.15_PT058H.grib2 2026-04-22 04:09 22K
20260422T00Z_MSC_GDPS_IcePellets-Accum_Sfc_LatLon0.15_PT058H.grib2 2026-04-22 04:09 81K
20260422T00Z_MSC_GDPS_LatentHeatNetFlux_Sfc_LatLon0.15_PT058H.grib2 2026-04-22 04:09 723K
20260422T00Z_MSC_GDPS_NetLongwaveRadiationFlux-Accum_Sfc_LatLon0.15_PT058H.grib2 2026-04-22 04:09 1.2M
20260422T00Z_MSC_GDPS_NetShortwaveRadiationFlux-Accum_Sfc_LatLon0.15_PT058H.grib2 2026-04-22 04:09 1.1M
20260422T00Z_MSC_GDPS_O3MixingRatio_LatLon0.15_PT058H.grib2 2026-04-22 04:58 2.3M
20260422T00Z_MSC_GDPS_O3_EAtm_LatLon0.15_PT058H.grib2 2026-04-22 04:58 2.5M
20260422T00Z_MSC_GDPS_PlanetaryBoundaryLayerHeight_Sfc_LatLon0.15_PT058H.grib2 2026-04-22 04:09 2.5M
20260422T00Z_MSC_GDPS_Precip-Accum1h_Sfc_LatLon0.15_PT058H.grib2 2026-04-22 04:09 3.3M
20260422T00Z_MSC_GDPS_Precip-Accum_Sfc_LatLon0.15_PT058H.grib2 2026-04-22 04:09 4.7M
20260422T00Z_MSC_GDPS_PrecipRate_Sfc_LatLon0.15_PT058H.grib2 2026-04-22 04:09 3.1M
20260422T00Z_MSC_GDPS_Pressure_MSL_LatLon0.15_PT058H.grib2 2026-04-22 04:09 827K
20260422T00Z_MSC_GDPS_Pressure_Sfc_LatLon0.15_PT058H.grib2 2026-04-22 04:09 1.1M
20260422T00Z_MSC_GDPS_RadiativeTemp_Sfc_LatLon0.15_PT058H.grib2 2026-04-22 04:09 672K
20260422T00Z_MSC_GDPS_Rain-Accum1h_Sfc_LatLon0.15_PT058H.grib2 2026-04-22 04:09 1.7M
20260422T00Z_MSC_GDPS_Rain-Accum_Sfc_LatLon0.15_PT058H.grib2 2026-04-22 04:09 3.7M
20260422T00Z_MSC_GDPS_RelativeHumidity_AGL-2m_LatLon0.15_PT058H.grib2 2026-04-22 04:09 1.1M
20260422T00Z_MSC_GDPS_Runoff-Accum_Sfc_LatLon0.15_PT058H.grib2 2026-04-22 04:09 118K
20260422T00Z_MSC_GDPS_SensibleHeatNetFlux_Sfc_LatLon0.15_PT058H.grib2 2026-04-22 04:09 655K
20260422T00Z_MSC_GDPS_Snow-Accum1h_Sfc_LatLon0.15_PT058H.grib2 2026-04-22 04:09 1.1M
20260422T00Z_MSC_GDPS_Snow-Accum_Sfc_LatLon0.15_PT058H.grib2 2026-04-22 04:09 1.9M
20260422T00Z_MSC_GDPS_SnowDepth_Sfc_LatLon0.15_PT058H.grib2 2026-04-22 04:09 1.8M
20260422T00Z_MSC_GDPS_SoilTemp_DBS-0to10cm_LatLon0.15_PT058H.grib2 2026-04-22 04:09 505K
20260422T00Z_MSC_GDPS_SoilTemp_Sfc_LatLon0.15_PT058H.grib2 2026-04-22 04:09 592K
20260422T00Z_MSC_GDPS_SoilVolumetricWaterContent_DBS-0to10cm_LatLon0.15_PT058H.grib2 2026-04-22 04:09 559K
20260422T00Z_MSC_GDPS_SoilVolumetricWaterContent_DBS-0to1cm_LatLon0.15_PT058H.grib2 2026-04-22 04:09 650K
20260422T00Z_MSC_GDPS_SpecificHumidity_AGL-120m_LatLon0.15_PT058H.grib2 2026-04-22 04:09 1.1M
20260422T00Z_MSC_GDPS_SpecificHumidity_AGL-2m_LatLon0.15_PT058H.grib2 2026-04-22 04:09 1.2M
20260422T00Z_MSC_GDPS_SpecificHumidity_AGL-40m_LatLon0.15_PT058H.grib2 2026-04-22 04:09 1.1M
20260422T00Z_MSC_GDPS_SpecificHumidity_AGL-80m_LatLon0.15_PT058H.grib2 2026-04-22 04:09 1.1M
20260422T00Z_MSC_GDPS_SpecificHumidity_Sfc_LatLon0.15_PT058H.grib2 2026-04-22 04:09 673K
20260422T00Z_MSC_GDPS_TotalCloudCover_Sfc_LatLon0.15_PT058H.grib2 2026-04-22 04:09 828K
20260422T00Z_MSC_GDPS_UVIndex-ClearSky_Sfc_LatLon0.15_PT058H.grib2 2026-04-22 04:58 1.1M
20260422T00Z_MSC_GDPS_UVIndex_Sfc_LatLon0.15_PT058H.grib2 2026-04-22 04:58 1.5M
20260422T00Z_MSC_GDPS_UpwardLongwaveRadiationFlux_NTAtm_LatLon0.15_PT058H.grib2 2026-04-22 04:09 844K
20260422T00Z_MSC_GDPS_WindDir_AGL-10m_LatLon0.15_PT058H.grib2 2026-04-22 04:09 1.3M
20260422T00Z_MSC_GDPS_WindDir_AGL-120m_LatLon0.15_PT058H.grib2 2026-04-22 04:09 1.3M
20260422T00Z_MSC_GDPS_WindDir_AGL-40m_LatLon0.15_PT058H.grib2 2026-04-22 04:09 1.4M
20260422T00Z_MSC_GDPS_WindDir_AGL-80m_LatLon0.15_PT058H.grib2 2026-04-22 04:09 1.4M
20260422T00Z_MSC_GDPS_WindDir_IsbL-0700_LatLon0.15_PT058H.grib2 2026-04-22 04:09 1.6M
20260422T00Z_MSC_GDPS_WindGust-Max_AGL-10m_LatLon0.15_PT058H.grib2 2026-04-22 04:09 2.3M
20260422T00Z_MSC_GDPS_WindGust-Min_AGL-10m_LatLon0.15_PT058H.grib2 2026-04-22 04:09 2.2M
20260422T00Z_MSC_GDPS_WindGust_AGL-10m_LatLon0.15_PT058H.grib2 2026-04-22 04:09 2.2M
20260422T00Z_MSC_GDPS_WindSpeed_AGL-10m_LatLon0.15_PT058H.grib2 2026-04-22 04:09 1.1M
20260422T00Z_MSC_GDPS_WindSpeed_AGL-120m_LatLon0.15_PT058H.grib2 2026-04-22 04:09 1.2M
20260422T00Z_MSC_GDPS_WindSpeed_AGL-40m_LatLon0.15_PT058H.grib2 2026-04-22 04:09 1.2M
20260422T00Z_MSC_GDPS_WindSpeed_AGL-80m_LatLon0.15_PT058H.grib2 2026-04-22 04:09 1.2M
20260422T00Z_MSC_GDPS_WindSpeed_IsbL-0700_LatLon0.15_PT058H.grib2 2026-04-22 04:09 1.5M
20260422T00Z_MSC_GDPS_WindU_AGL-10m_LatLon0.15_PT058H.grib2 2026-04-22 04:09 1.6M
20260422T00Z_MSC_GDPS_WindU_AGL-120m_LatLon0.15_PT058H.grib2 2026-04-22 04:09 968K
20260422T00Z_MSC_GDPS_WindU_AGL-40m_LatLon0.15_PT058H.grib2 2026-04-22 04:09 965K
20260422T00Z_MSC_GDPS_WindU_AGL-80m_LatLon0.15_PT058H.grib2 2026-04-22 04:09 969K
20260422T00Z_MSC_GDPS_WindU_IsbL-0700_LatLon0.15_PT058H.grib2 2026-04-22 04:09 1.2M
20260422T00Z_MSC_GDPS_WindV_AGL-10m_LatLon0.15_PT058H.grib2 2026-04-22 04:09 1.3M
20260422T00Z_MSC_GDPS_WindV_AGL-120m_LatLon0.15_PT058H.grib2 2026-04-22 04:09 966K
20260422T00Z_MSC_GDPS_WindV_AGL-40m_LatLon0.15_PT058H.grib2 2026-04-22 04:09 963K
20260422T00Z_MSC_GDPS_WindV_AGL-80m_LatLon0.15_PT058H.grib2 2026-04-22 04:09 968K
20260422T00Z_MSC_GDPS_WindV_IsbL-0700_LatLon0.15_PT058H.grib2 2026-04-22 04:09 1.2M